Weather History for KLCQ, Florida

Change the Weather History Date:

Saturday, August 30, 2014

  Actual Average (KGNV) Record (KGNV)
Temperature  
Mean Temperature 82 °F 80 °F  
Max Temperature 93 °F 89 °F 97 °F (1903)
Min Temperature 71 °F 71 °F 63 °F (1896)
Degree Days  
Heating Degree Days 0 0  
Month to date heating degree days 0 0  
Since 1 June heating degree days 0 0  
Since 1 July heating degree days 0 0  
Cooling Degree Days 17 15  
Month to date cooling degree days 508 476  
Year to date cooling degree days 1929 1927  
Since 1 June cooling degree days 1428 1417  
Growing Degree Days 32 (Base 50)    
Moisture  
Dew Point 72 °F    
Average Humidity 76    
Maximum Humidity 100    
Minimum Humidity 52    
Precipitation  
Precipitation 1.81 in 0.20 in 2.76 in (1943)
Month to date precipitation 5.21 6.19  
Year to date precipitation 37.06 35.37  
Snow  
Snow 0.00 in 0.00 in 0.00 in ()
Month to date snowfall 0.0 0.0  
Since 1 June snowfall 0.0 0.0  
Since 1 July snowfall 0.0 0.0  
Snow Depth 0.00 in    
Sea Level Pressure  
Sea Level Pressure 30.10 in    
Wind  
Wind Speed 3 mph (ENE)    
Max Wind Speed 18 mph    
Max Gust Speed 25 mph    
Visibility 5 miles    
Events Fog , Rain , Thunderstorm    
T = Trace of Precipitation, MM = Missing Value Source: NWS Daily Summary

Daily Weather History Graph

Daily Weather History Graph

Search for Another Location

Airport:

Trip Planner

Search our weather history database for the weather conditions in past years. The results will help you decide how hot, cold, wet, or windy it might be!

Date:

Astronomy

Aug. 30, 2014 Rise Set
Actual Time 7:06 AM EDT 7:55 PM EDT
Civil Twilight 6:41 AM EDT 8:19 PM EDT
Nautical Twilight 6:12 AM EDT 8:48 PM EDT
Astronomical Twilight 5:43 AM EDT 9:17 PM EDT
Moon 11:29 AM EDT (8/30) 10:52 PM EDT (8/30)
Length of Visible Light 13h 38m
Length of Day
12h 49m
Waxing Crescent, 23% of the Moon is Illuminated
Aug 30
Waxing Crescent
Sep 2
First Quarter
Sep 8
Full
Sep 15
Last Quarter
Sep 24
New

Hourly Weather History & Observations

Time (EDT) Temp. Heat Index Dew Point Humidity Pressure Visibility Wind Dir Wind Speed Gust Speed Precip Events Conditions
12:53 AM 73.0 °F - 72.0 °F 96% 30.10 in 10.0 mi Calm Calm - N/A   Clear
1:05 AM 73.0 °F - 72.0 °F 96% 30.12 in 10.0 mi Calm Calm - N/A   Scattered Clouds
1:34 AM 72.0 °F - 72.0 °F 100% 30.12 in 10.0 mi East 3.5 mph - N/A   Mostly Cloudy
1:53 AM 73.0 °F - 72.0 °F 96% 30.10 in 10.0 mi NE 3.5 mph - N/A   Overcast
2:05 AM 73.0 °F - 72.0 °F 96% 30.10 in 1.5 mi NE 3.5 mph - N/A   Overcast
2:14 AM 73.0 °F - 72.0 °F 96% 30.10 in 0.5 mi NE 3.5 mph - N/A Fog Fog
2:21 AM 72.0 °F - 72.0 °F 100% 30.10 in 0.2 mi NE 3.5 mph - N/A Fog Fog
2:46 AM 72.0 °F - 72.0 °F 100% 30.11 in 0.5 mi ESE 4.6 mph - N/A Fog Fog
2:53 AM 72.0 °F - 72.0 °F 100% 30.10 in 1.0 mi Calm Calm - N/A   Mist
3:12 AM 72.0 °F - 72.0 °F 100% 30.10 in 2.0 mi Calm Calm - N/A   Overcast
3:19 AM 73.0 °F - 73.0 °F 100% 30.10 in 1.0 mi Calm Calm - N/A   Overcast
3:26 AM 72.0 °F - 72.0 °F 100% 30.10 in 0.5 mi Calm Calm - N/A Fog Fog
3:31 AM 72.0 °F - 72.0 °F 100% 30.10 in 0.2 mi Calm Calm - N/A Fog Fog
4:19 AM 72.0 °F - 72.0 °F 100% 30.11 in 0.8 mi SSE 3.5 mph - N/A   Mist
4:22 AM 71.1 °F - 71.1 °F 100% 30.11 in 1.0 mi Calm Calm - N/A   Mist
4:32 AM 72.0 °F - 72.0 °F 100% 30.11 in 3.0 mi Calm Calm - N/A   Overcast
4:53 AM 72.0 °F - 72.0 °F 100% 30.10 in 4.0 mi SW 3.5 mph - N/A   Mostly Cloudy
5:02 AM 72.0 °F - 72.0 °F 100% 30.11 in 6.0 mi South 4.6 mph - N/A   Mostly Cloudy
5:12 AM 72.0 °F - 72.0 °F 100% 30.11 in 1.8 mi Calm Calm - N/A   Overcast
5:21 AM 72.0 °F - 72.0 °F 100% 30.11 in 2.0 mi Calm Calm - N/A   Overcast
5:30 AM 72.0 °F - 72.0 °F 100% 30.11 in 5.0 mi Calm Calm - N/A   Overcast
5:47 AM 71.6 °F - 71.6 °F 100% 30.11 in 1.8 mi Calm Calm - N/A   Overcast
5:53 AM 73.0 °F - 73.0 °F 100% 30.10 in 1.0 mi Calm Calm - N/A   Overcast
6:01 AM 72.0 °F - 72.0 °F 100% 30.11 in 0.8 mi Calm Calm - N/A   Overcast
6:21 AM 73.0 °F - 72.0 °F 96% 30.11 in 0.2 mi Calm Calm - N/A Fog Fog
6:30 AM 73.0 °F - 72.0 °F 96% 30.11 in 0.5 mi Calm Calm - N/A Fog Fog
6:48 AM 71.6 °F - 71.6 °F 100% 30.12 in 0.2 mi ESE 3.5 mph - N/A Fog Fog
6:53 AM 72.0 °F - 72.0 °F 100% 30.12 in 0.5 mi Calm Calm - N/A Fog Fog
7:05 AM 72.0 °F - 72.0 °F 100% 30.12 in 0.8 mi East 3.5 mph - N/A   Mist
7:35 AM 72.0 °F - 72.0 °F 100% 30.14 in 2.0 mi Calm Calm - N/A   Mostly Cloudy
7:39 AM 72.0 °F - 72.0 °F 100% 30.14 in 4.0 mi Calm Calm - N/A   Partly Cloudy
7:53 AM 73.0 °F - 73.0 °F 100% 30.13 in 10.0 mi Calm Calm - N/A   Partly Cloudy
8:53 AM 78.1 °F - 73.9 °F 87% 30.13 in 10.0 mi Calm Calm - N/A   Clear
9:53 AM 82.0 °F 89.4 °F 75.9 °F 82% 30.15 in 10.0 mi SE 4.6 mph - N/A   Clear
10:53 AM 84.9 °F 93.3 °F 75.0 °F 72% 30.15 in 10.0 mi East 4.6 mph - N/A   Clear
11:53 AM 87.1 °F 94.5 °F 73.0 °F 63% 30.14 in 10.0 mi SE 4.6 mph - N/A   Clear
12:53 PM 88.0 °F 96.5 °F 73.9 °F 63% 30.12 in 10.0 mi Calm Calm - N/A   Scattered Clouds
1:53 PM 90.0 °F 100.2 °F 75.0 °F 61% 30.10 in 10.0 mi North - - N/A   Scattered Clouds
2:53 PM 93.0 °F 103.2 °F 73.9 °F 54% 30.08 in 10.0 mi Calm Calm - N/A   Scattered Clouds
3:53 PM 91.9 °F 101.3 °F 73.9 °F 55% 30.06 in 10.0 mi Variable 3.5 mph - N/A   Scattered Clouds
4:53 PM 91.9 °F 101.3 °F 73.9 °F 55% 30.04 in 10.0 mi North 3.5 mph - N/A   Scattered Clouds
5:53 PM 91.9 °F 100.7 °F 73.0 °F 54% 30.03 in 10.0 mi Calm Calm - N/A   Clear
6:27 PM 90.0 °F 99.0 °F 73.9 °F 59% 30.04 in 10.0 mi NE 8.1 mph - N/A Thunderstorm Thunderstorm
6:53 PM 79.0 °F - 73.0 °F 82% 30.06 in 2.0 mi ENE 15.0 mph - 0.05 in Rain , Thunderstorm Heavy Thunderstorms and Rain
7:05 PM 80.1 °F 84.2 °F 73.0 °F 79% 30.06 in 3.0 mi Variable 3.5 mph - 0.08 in Rain , Thunderstorm Thunderstorms and Rain
7:13 PM 79.0 °F - 75.0 °F 88% 30.07 in 6.0 mi South 9.2 mph - 0.09 in Rain , Thunderstorm Light Thunderstorms and Rain
7:31 PM 79.0 °F - 73.9 °F 84% 30.08 in 2.5 mi ENE 8.1 mph - 0.13 in Rain , Thunderstorm Light Thunderstorms and Rain
7:53 PM 78.1 °F - 72.0 °F 81% 30.08 in 4.0 mi ENE 3.5 mph - 0.26 in Rain , Thunderstorm Thunderstorms and Rain
8:02 PM 75.9 °F - 72.0 °F 87% 30.09 in 2.0 mi NNW 12.7 mph 19.6 mph 0.13 in Rain , Thunderstorm Thunderstorms and Rain
8:11 PM 75.9 °F - 71.1 °F 85% 30.10 in 9.0 mi NNW 8.1 mph - 0.13 in Rain , Thunderstorm Light Thunderstorms and Rain
8:15 PM 75.0 °F - 71.1 °F 87% 30.11 in 1.8 mi WNW 8.1 mph - 0.18 in Rain , Thunderstorm Heavy Thunderstorms and Rain
8:20 PM 73.0 °F - 71.1 °F 93% 30.10 in 0.8 mi NNE 9.2 mph - 0.45 in Rain , Thunderstorm Heavy Thunderstorms and Rain
8:31 PM 75.0 °F - 71.1 °F 87% 30.11 in 1.2 mi East 16.1 mph 21.9 mph 0.69 in Rain , Thunderstorm Heavy Thunderstorms and Rain
8:43 PM 75.0 °F - 71.1 °F 87% 30.11 in 0.8 mi Variable 6.9 mph 25.3 mph 1.35 in Rain , Thunderstorm Heavy Thunderstorms and Rain
8:50 PM 75.2 °F - 71.6 °F 89% 30.12 in 2.0 mi East 6.9 mph - 1.43 in Rain , Thunderstorm Thunderstorms and Rain
8:53 PM 73.9 °F - 71.1 °F 91% 30.11 in 3.0 mi ENE 5.8 mph - 1.44 in Rain , Thunderstorm Heavy Thunderstorms and Rain
9:03 PM 73.9 °F - 72.0 °F 93% 30.12 in 5.0 mi West 3.5 mph - 0.02 in Rain , Thunderstorm Light Thunderstorms and Rain
9:32 PM 73.0 °F - 71.1 °F 93% 30.12 in 10.0 mi North 11.5 mph - 0.06 in Rain , Thunderstorm Light Rain
9:53 PM 73.0 °F - 71.1 °F 93% 30.12 in 10.0 mi SW 8.1 mph - 0.06 in Thunderstorm Overcast
11:53 PM 73.0 °F - 71.1 °F 93% 30.16 in 10.0 mi SW 6.9 mph - N/A   Mostly Cloudy